Location: Fernhill
(41.0167°S, 175.6333°E)
Time: 08:41:38
(UTC+00:00)

Lacrosse 4 Rocket - Pass Details

Date: 08 November 2025
Orbit: 513 x 567 km, 68.0° (Epoch: 12 December)

Event Time Altitude Azimuth Distance (km) Brightness Sun altitude
Rises 07:38:37 0° 192° (SSW) 2,757 5.5 -6.3°
Reaches altitude 10° 07:41:46 10° 166° (SSE) 1,867 4.2 -6.8°
Maximum altitude 07:44:05 14° 133° (SE) 1,608 3.5 -7.2°
Drops below altitude 10° 07:46:23 10° 99° (E) 1,872 3.6 -7.6°
Enters shadow 07:47:27 - 88° (E) 2,132 3.8 -7.8°
